This demonstration page uses our WeatherBlox Daily Observations layout. Learn more.

36.17497, -115.13722

Hourly Observations for July 15, 2015

Temp ( °F °C ) Dew Point ( °F °C ) Humidity (%) Winds ( mph kmh ) Pressure ( in mb ) Visibility ( mi km ) Precip ( " mm )
12:53 am 00:53 Clear 84 29 30 -1 14 14 SSE 5 7 29.62 1003 10 16.09344 0 0
1:53 am 01:53 Clear 81 27 36 2 20 20 NNE 3 6 29.62 1003 10 16.09344 0 0
2:53 am 02:53 Clear 81 27 37 3 21 21 Calm 29.62 1003 10 16.09344 0 0
3:53 am 03:53 Clear 79 26 37 3 23 23 Calm 29.68 1005 10 16.09344 0 0
4:53 am 04:53 Clear 81 27 36 2 20 20 SW 5 7 29.65 1004 10 16.09344 0 0
5:53 am 05:53 Sunny 75 24 37 3 25 25 WNW 5 7 29.71 1006 10 16.09344 0 0
6:53 am 06:53 Sunny 75 24 37 3 25 25 SSE 3 6 29.74 1007 10 16.09344 0 0
7:53 am 07:53 Sunny 81 27 37 3 21 21 N 3 6 29.77 1008 10 16.09344 0 0
8:53 am 08:53 Sunny 88 31 37 3 17 17 SE 5 7 29.74 1007 10 16.09344 0 0
9:53 am 09:53 Sunny 91 33 36 2 14 14 ESE 10 17 29.71 1006 10 16.09344 0 0
10:53 am 10:53 Sunny 93 34 36 2 13 13 SSE 17 28 29.71 1006 10 16.09344 0 0
11:53 am 11:53 Sunny 95 35 36 2 12 12 S 16 26 29.71 1006 10 16.09344 0 0
12:53 pm 12:53 Sunny 97 36 36 2 12 12 S 7 11 29.65 1004 10 16.09344 0 0
1:53 pm 13:53 Sunny 100 38 34 1 10 10 S 9 15 29.62 1003 10 16.09344 0 0
2:53 pm 14:53 Sunny 100 38 25 -4 7 7 SSW 20 31 29.59 1002 10 16.09344 0 0
3:53 pm 15:53 Sunny 100 38 25 -4 7 7 SW 12 19 29.59 1002 10 16.09344 0 0
4:53 pm 16:53 Sunny 100 38 25 -4 7 7 S 17 28 29.56 1001 10 16.09344 0 0
5:53 pm 17:53 Sunny 100 38 28 -2 8 8 SSW 15 24 29.56 1001 10 16.09344 0 0
6:53 pm 18:53 Sunny 99 37 30 -1 9 9 SW 14 22 29.56 1001 10 16.09344 0 0
7:53 pm 19:53 Sunny 97 36 28 -2 9 9 WSW 12 19 29.59 1002 10 16.09344 0 0
8:53 pm 20:53 Clear 93 34 27 -3 9 9 WSW 7 11 29.62 1003 10 16.09344 0 0
9:53 pm 21:53 Clear 91 33 28 -2 10 10 SSW 5 7 29.65 1004 10 16.09344 0 0
10:53 pm 22:53 Clear 88 31 28 -2 12 12 SSE 7 11 29.65 1004 10 16.09344 0 0
11:53 pm 23:53 Clear 88 31 30 -1 13 13 Calm 29.71 1006 10 16.09344 0 0

Powered by AerisWeather